YBMK Airport Information

Runway Information
Runway 05 Length 4409 ft width 98 ft
Elevation 19 ft Threshold 187 ft Heading 58
Runway 23 Length 4409 ft Width 98 ft
Elevation 13 ft Threshold 0 ft Heading 238
Runway 14 Length 6499 ft width 148 ft
Elevation 17 ft Threshold 0 ft Heading 148
Runway 32 Length 6499 ft Width 148 ft
Elevation 14 ft Threshold 0 ft Heading 328
Airport Frequencies
Type ATIS Name ATIS Frequency 112.7 MHZ
Type CTAF Name CTAF Frequency 124.5 MHZ
Type FSS Name BRISBANE C Frequency 135.5 MHZ
Type TWR Name TWR Frequency 124.5 MHZ
Airport Navaids
Type VOR-DME Name Mackay Frequency 112700 KHZ
Type NDB Name Mackay Frequency 308 KHZ
Airport Weather Information & NOTAM
ADDS - METARS form results

(1030 UTC 21 May 2019)
Data provider http://aviationweather.gov/metar/data/
 
METAR text: YBMK 211000Z AUTO 19006KT 9999 // NCD 20/17 Q1022
Conditions at: YBMK (MACKAY , AU) observed 1000 UTC 21 May 2019
Temperature: 20.0°C (68°F)
Dewpoint: 17.0°C (63°F) [RH = 83%]
Pressure (altimeter): 30.18 inches Hg (1022.0 mb)
Winds: from the S (190 degrees) at 7 MPH (6 knots; 3.1 m/s)
Visibility: 6 or more miles (10+ km)
Ceiling: at least 12,000 feet AGL
Clouds: sky clear below 12,000 feet AGL
Weather: no significant weather observed at this time